Location: Newark
(30.8300°N, 83.2700°W)
Time: 21:58:12
(UTC+00:00)

N. Korean satellite - Visible Passes

Search period start: 15 September 2019 00:00
Search period end: 25 September 2019 00:00
Orbit: 455 x 508 km, 97.2° (Epoch: 15 September)

Date Brightness Start Highest point End Pass type
(mag) Time Alt. Az. Time Alt. Az. Time Alt. Az.
18 Sep 9.7 10:38:43 10° NE 10:40:56 16° E 10:43:09 10° SE visible
21 Sep 8.9 10:55:41 10° NE 10:58:43 29° E 11:01:45 10° SSE visible
22 Sep 10.0 10:31:45 10° ENE 10:33:24 13° E 10:35:03 10° ESE visible
